Simultaneous Nadir Overpasses (SNOs) Predictions

Prediction of SNOs between FY3D and AQUA Satellite Orbit:

Table of predicted SNOs for the next 14.0 days since TLE Epoch: 7/4/2020
Index Date (FY3D) Time (FY3D) Lat,Lon (FY3D) SZA (FY3D ) Date (AQUA) Time (AQUA) Lat,Lon (AQUA) SZA (AQUA ) Distance(km) Time Diff (sec)
1 07/04/2020 13:13:00 -64.62, 23.25 92.70 07/04/2020 13:13:07 -64.62, 23.25 92.71 0.20 7
2 07/04/2020 14:02:29 68.60,-164.94 83.14 07/04/2020 14:01:21 68.60,-164.93 83.21 0.66 68
3 07/07/2020 05:29:41 -63.64, 138.26 91.41 07/07/2020 05:29:53 -63.64, 138.29 91.43 1.46 12
4 07/07/2020 06:18:49 68.77, -48.80 83.25 07/07/2020 06:17:47 68.77, -48.85 83.33 1.86 62
5 07/09/2020 21:45:59 -63.92,-105.57 91.37 07/09/2020 21:46:17 -63.92,-105.60 91.38 1.49 18
6 07/09/2020 22:35:28 67.92, 66.00 84.48 07/09/2020 22:34:31 67.92, 66.01 84.54 0.53 57
7 07/12/2020 14:02:38 -62.99, 9.52 90.05 07/12/2020 14:03:01 -62.99, 9.52 90.07 0.05 23
8 07/12/2020 14:51:46 68.14,-177.81 84.62 07/12/2020 14:50:55 68.13,-177.85 84.69 2.17 51
9 07/15/2020 06:19:19 -61.99, 124.61 88.62 07/15/2020 06:19:47 -62.00, 124.63 88.66 1.35 28
10 07/15/2020 07:08:25 67.28, -62.95 85.93 07/15/2020 07:07:39 67.28, -62.95 85.98 0.11 46
11 07/17/2020 22:35:36 -62.33,-119.21 88.52 07/17/2020 22:36:10 -62.32,-119.24 88.54 1.73 34
